This is the latest recevied weather packets stored in our database for station/object DC1MBB-9. If no packets are shown the sender has not sent any weather packets the latest 10 day(s).
| Time | Temp. | Humidity | Pressure | Rain* | Wind** | Luminosity | Snow |
|---|---|---|---|---|---|---|---|
| 1778054571 | 18.33° C | 54% | 950 hPa | - | - | - | - |
| 1778054210 | 18.33° C | 54% | 950 hPa | - | - | - | - |
| 1778053849 | 18.33° C | 55% | 950 hPa | - | - | - | - |
| 1778053489 | 17.78° C | 59% | 950 hPa | - | - | - | - |
| 1778053128 | 17.78° C | 59% | 950 hPa | - | - | - | - |
| 1778052767 | 17.22° C | 62% | 950 hPa | - | - | - | - |
| 1778052406 | 17.78° C | 59% | 950 hPa | - | - | - | - |
| 1778052046 | 17.22° C | 62% | 950 hPa | - | - | - | - |
| 1778051685 | 17.22° C | 64% | 950 hPa | - | - | - | - |
| 1778051324 | 17.22° C | 68% | 950 hPa | - | - | - | - |
| 1778050963 | 16.67° C | 68% | 950 hPa | - | - | - | - |
| 1778050603 | 16.67° C | 74% | 950 hPa | - | - | - | - |
| 1778050242 | 16.11° C | 74% | 950 hPa | - | - | - | - |
| 1778049881 | 15.56° C | 77% | 950 hPa | - | - | - | - |
| 1778049520 | 15.56° C | 83% | 950 hPa | - | - | - | - |
| 1778049160 | 15.56° C | 84% | 950 hPa | - | - | - | - |
| 1778048799 | 15° C | 88% | 950 hPa | - | - | - | - |
| 1778048438 | 15.56° C | 85% | 950 hPa | - | - | - | - |
| 1778048077 | 15° C | 87% | 950 hPa | - | - | - | - |
| 1778047716 | 15° C | 88% | 950 hPa | - | - | - | - |
| 1778047356 | 14.44° C | 90% | 950 hPa | - | - | - | - |
| 1778046995 | 14.44° C | 93% | 950 hPa | - | - | - | - |
| 1778046634 | 14.44° C | 95% | 950 hPa | - | - | - | - |
| 1778046273 | 13.89° C | 97% | 950 hPa | - | - | - | - |
| 1778045913 | 13.33° C | 98% | 950 hPa | - | - | - | - |
* Rain since midnight (hover to see other rain measurements)
** Current wind speed in m/s (hover to see current wind gust speed)